Weather in Freiberg

Germany     50°54′52″N   13°20′26″E
temp.,
°C
wind,
m/s
gust,
m/s
humid.,
%
clouds,
%
prec.,
mm/h
press.,
hPa
HPBL,
m
23 april, fri
fri2323:00+3w4118589 0.2 1024329
02:00+1w410935 0.3 1025254
05:00−1wsw499720 0.0 1026222
08:00+2w698892 0.0 1027567
11:00+5wnw687082 0.1 10271248
14:00+9wnw785682 0.1 10261756
17:00+9nw695977 0.0 10251800
20:00+6w47805 0.1 1026108
24 april, sat
sat2423:00+3wsw348672 0.0 102751
02:00+1wsw329144 0.0 102732
05:000sw339419 0.0 102741
08:00+3w458485 0.0 1027290
11:00+7wnw4464100 0.0 1026910
14:00+9wnw4558100 0.0 10251279
17:00+9nw5658100 0.0 10241439
20:00+6wnw2277100 0.0 102430
25 april, sun
sun2523:00+3w118515 0.0 102510
02:00+1ese11885 0.0 102510
05:000e118994 0.0 102610
08:00+3ne22755 0.0 1026211
11:00+7n34490 0.0 10261219
14:00+8n444654 0.0 10251580
17:00+8n344772 0.0 10241609
20:00+4e2264100 0.0 102413
26 april, mon
mon2623:00+2s226196 0.0 102312
02:00+1s33655 0.0 102320
05:000s22675 0.0 102110
08:00+5ssw11575 0.0 1020128
11:00+9ne21495 0.0 10191425
14:00+11nne324736 0.0 10171707
17:00+11ne32505 0.0 10151387
20:00+6ene3471100 0.0 101452
27 april, tue
tue2723:00+4e3471100 0.0 101371
02:00+3ese3470100 0.0 101152
05:00+2ese227494 0.0 101029
08:00+5ese3976100 0.0 1009384
11:00+9ese6859100 0.0 10071012
14:00+9se6767100 0.0 1006943
17:00+7ese6986100 0.1 1005817
20:00+5ese2891100 0.1 1005801